Content
SEND FEEDBACK

Daily
Averages
Monthly
Summary
United States of America

MIDLAND, SOUTH DAKOTA


Home > North America > United States > South Dakota
Elevation: 645 meters     Latitude: 44 37N     Longitude: 101 20W

WEATHER
 
SELECT A DAY
Number of Records: 159,011;   Date Range: 1/1/95 - 7/20/14
 
SHARE

PRINT THIS DATA

[ ← Previous Day ]
WEATHER ALMANAC - 31 JANUARY, 2013
[ Next Day → ]
[ °F ]   °C
Weather ElementAverageHighLow
Temperature-15.9 °C-12.2 °C (12:55 am)-21.1 °C (7:55 am)
Dewpoint-20.6 °C-15 °C (12:55 am)-26.1 °C (7:55 am)
Humidity68.9 %80 % (12:55 am)58 % (2:55 pm)
Barometer1025.7 hPa1032.5 hPa (10:55 am)1015.6 hPa (1:20 am)
Wind Speed15.1 km/h33.3 km/h (5:55 am)
Wind Gust42.6 km/h (5:53 am)
Weather ElementAverage
Visibility13.5 km
Wind DirectionWSW (237.2 °)

Weather ElementTotal
Precipitation0.51 mm
Heating Degree Days35 (Base 18.3)
Averaged from 29 records on 31 January, 2013
WEATHER CONDITIONS BREAKOUT
WIND DIRECTION BREAKOUT
WEATHER BY HOUR - 31 JANUARY, 2013
[ °F ]   °C
Local TimeTemperatureDewpointHumidityBarometerVisibilityWind DirectionWind SpeedGust SpeedPrecipitationEventsConditions
12:55 AM-12.2 °C-15 °C80 %1019 hPa3.2 kmNorth (10°)13 km/h0.25 mmSnowLight Snow
1:20 AM-13 °C-16 °C79 %1015.6 hPa4.8 kmNorth (350°)7.4 km/h0 mmSnowLight Snow
1:35 AM-13 °C-16 °C79 %1015.9 hPa4.8 kmNorth (360°)7.4 km/h0 mmSnowLight Snow
1:43 AM-13 °C-16 °C79 %1015.9 hPa3.2 kmNorth (360°)9.3 km/h0 mmSnowLight Snow
1:55 AM-13.3 °C-16.1 °C80 %1020.3 hPa3.2 kmNorth (350°)13 km/h0.25 mmSnowLight Snow
2:12 AM-14 °C-17 °C79 %1016.6 hPa4.8 kmNNW (340°)29.6 km/h37 km/h0 mmSnowLight Snow
2:55 AM-15 °C-18.9 °C73 %1021.7 hPa14.5 kmNorth (350°)20.4 km/h0 mmOvercast
3:55 AM-15 °C-18.9 °C73 %1022.4 hPa16.1 kmNW (320°)22.2 km/h0 mmOvercast
4:55 AM-16.7 °C-20.6 °C72 %1024.4 hPa16.1 kmNNW (340°)24.1 km/hMostly Cloudy
5:53 AM-18 °C-23 °C66 %1021.3 hPa16.1 kmNNW (340°)31.5 km/h42.6 km/hMostly Cloudy
5:55 AM-18.3 °C-22.8 °C69 %1026.4 hPa16.1 kmNNW (340°)33.3 km/h42.6 km/hScattered Clouds
6:55 AM-20 °C-25 °C65 %1028.1 hPa16.1 kmNW (320°)29.6 km/h37 km/hClear
7:55 AM-21.1 °C-26.1 °C65 %1030.1 hPa16.1 kmNNW (340°)24.1 km/hClear
8:55 AM-20 °C-25.6 °C62 %1031.2 hPa16.1 kmNW (310°)27.8 km/hClear
9:55 AM-19.4 °C-25 °C62 %1032.2 hPa16.1 kmNW (320°)27.8 km/h33.3 km/hClear
10:55 AM-18.3 °C-24.4 °C60 %1032.5 hPa16.1 kmNW (310°)20.4 km/hClear
11:55 AM-17.2 °C-23.3 °C60 %1031.2 hPa16.1 kmNW (320°)22.2 km/hClear
12:55 PM-16.7 °C-22.8 °C60 %1030.5 hPa16.1 kmNW (310°)24.1 km/hClear
1:55 PM-16.7 °C-22.8 °C60 %1029.8 hPa16.1 kmNW (320°)16.7 km/hClear
2:55 PM-15.6 °C-22.2 °C58 %1029.8 hPa16.1 kmNNW (330°)13 km/hClear
3:55 PM-16.1 °C-21.7 °C63 %1029.5 hPa16.1 kmWNW (300°)9.3 km/hPartly Cloudy
4:55 PM-16.1 °C-21.7 °C63 %1029.1 hPa16.1 kmCalmPartly Cloudy
5:55 PM-16.1 °C-21.1 °C66 %1029.5 hPa16.1 kmCalmOvercast
6:55 PM-16.1 °C-20.6 °C69 %1029.5 hPa16.1 kmCalmOvercast
7:55 PM-15.6 °C-20.6 °C66 %1029.1 hPa16.1 kmSSE (150°)5.6 km/hOvercast
8:55 PM-15 °C-18.9 °C73 %1028.4 hPa16.1 kmCalmOvercast
9:55 PM-14.4 °C-18.3 °C73 %1027.4 hPa16.1 kmEast (90°)5.6 km/hOvercast
10:55 PM-13.9 °C-17.8 °C73 %1026.8 hPa16.1 kmCalmOvercast
11:55 PM-13.3 °C-17.8 °C70 %1025.7 hPa16.1 kmCalmOvercast
Hourly data recorded from KPHP, located 0 kilometers away from Midland, South Dakota







STORIES FROM OUR PARTNERS